STARLINK-31929, 59836

Orbit data source: Space-Track

STARLINK-31929, 59836 is a payload satellite owned by SpaceX/Seattle (US) in LEO that was launched on Thu, 23 May 2024 UTC via an FALCON 9 launch vehicle from the Air Force Eastern Test Range (AFETR). Payload-class satellites include a variety of spacecraft equipped with specific instruments for various scientific and technological missions. These include communications satellites like Starlink; space stations such as the ISS; scientific satellites like the Hubble; Earth observation satellites from companies like Planet Labs, Umbra, and HawkEye 360; GPS; miniature CubeSats for education and research; and military/defense satellites.

Loading next visibility...
Identifier
59836, 2024-097B
Orbit
LEO
Country
Flag of USUS
Related business
Manufacturer
SpaceX/Seattle
Mission
Operational Commercial Communications
Bus & Motor
STARLINK V2M, Unknown motor
Mass
730 kg wet, ~700 kg dry
Launch date (UTC)
2024-05-23 (2 years ago)
Launch vehicle
FALCON 9
Launch site
Air Force Eastern Test Range (AFETR)
Object type
Payload
Rocket body
Debris
Shape & HBR
Box + 2 Pan, 17.7 m
Radar Cross Section
33.884 m², Large (>1 m²)

Expand to show TLE details & history
Last TLE update: 2 days ago

TLE from 2 days ago
0 STARLINK-31929
1 59836U 24097B   26171.08727941  .00001707  00000-0  71529-4 0  9991
2 59836  43.0042  56.3772 0001249 268.3175  91.7534 15.27583042117571
Epoch: 2026-06-20T02:05Z
TLE epoch observation values (Epoch: 2026-06-20T02:05:40.941Z)
Latitude
0.00003°
Longitude
116.6497°
Altitude
482.842 km
Speed
7.626 km/s
True Right ascension
03h 45m 30s
True Declination
0° 00' 00"
Sunlit
Object was in daylight at epoch
Visualization orbit readout
Latitude
Unknown
Longitude
Unknown
Altitude
Unknown
Speed
Unknown
Apparent Right ascension
Unknown
Apparent Declination
Unknown
Sunlit
N/A
Visualization observer readout
Local Sidereal Time
21:29:31
Azimuth
Unknown
Elevation
Unknown
Doppler factor
Unknown
Orbital elements
Apogee altitude
485.842 km
Perigee altitude
484.127 km
Semi-major axis
6,863.121 km
Eccentricity
0.00012
Inclination
43.0042°
RAAN
56.3772°
Arg. of periapsis
268.3175°
True anomaly
91.76771°
Mean anomaly
91.7534°
Eccentric anomaly
91.76055°
Mean motion
3.81734 °/min
Orbital period
94.31 mins
BSTAR
0.000071529
Loading maneuver chart data...
Computing Atmospheric mass density...
Loading historical data...
Loading historical data...
Loading historical data...
Loading historical data...
Loading historical data...
Loading historical data...
Loading historical data...

Documentation

Showing up to 5 results
|